Location: Baumgarten
(49.0970°N, 12.7493°E)
Time: 08:24:00
(UTC+00:00)

COSMOS 2428 - Pass Details

Date: 05 July 2020
Orbit: 844 x 859 km, 70.9° (Epoch: 05 August)

Event Time Altitude Azimuth Distance (km) Brightness Sun altitude
Exits shadow 20:15:33 - 175° (S) 3,086 5.1 -8.0°
Reaches altitude 10° 20:17:21 10° 169° (S) 2,458 4.6 -8.2°
Maximum altitude 20:22:21 34° 106° (ESE) 1,367 3.4 -8.7°
Drops below altitude 10° 20:27:24 10° 44° (NE) 2,477 5.2 -9.2°
Sets 20:30:02 0° 35° (NE) 3,418 6.1 -9.5°
